Location: Breitenfeld
(46.8500°N, 15.6333°E)
Time: 17:13:08
(UTC+00:00)

Cosmos 220 Rocket - Pass Details

Date: 09 April 2020
Orbit: 574 x 618 km, 74.0° (Epoch: 01 June)

Event Time Altitude Azimuth Distance (km) Brightness Sun altitude
Rises 19:13:59 0° 340° (NNW) 2,841 8.3 -16.0°
Reaches altitude 10° 19:16:14 10° 344° (NNW) 1,942 7.3 -16.3°
Maximum altitude 19:20:32 64° 66° (ENE) 669 4.0 -16.9°
Enters shadow 19:22:18 34° 136° (SE) 1,002 4.6 -17.2°
